Time,TemperatureF,DewpointF,PressureIn,WindDirection,WindDirectionDegrees,WindSpeedMPH,WindSpeedGustMPH,Humidity,HourlyPrecipIn,Conditions,Clouds,dailyrainin,SoftwareType,DateUTC
2013-01-21 00:05:00,30.7,17.0,30.02,ESE,122,2.0,2.0,58,0.00,,,0.00,weatherlink.com 1.10,2013-01-21 05:05:00,
2013-01-21 00:20:00,29.8,17.0,30.02,East,96,0.0,2.0,60,0.00,,,0.00,weatherlink.com 1.10,2013-01-21 05:20:00,
2013-01-21 00:35:00,31.1,13.0,30.02,SSW,201,1.0,2.0,48,0.00,,,0.00,weatherlink.com 1.10,2013-01-21 05:35:00,
2013-01-21 00:50:00,28.9,17.0,30.02,SSE,164,0.0,0.0,62,0.00,,,0.00,weatherlink.com 1.10,2013-01-21 05:50:00,
2013-01-21 01:05:00,28.3,19.0,30.02,SSE,163,0.0,0.0,68,0.00,,,0.00,weatherlink.com 1.10,2013-01-21 06:05:00,
2013-01-21 01:20:00,27.7,18.0,30.02,ENE,60,0.0,2.0,67,0.00,,,0.00,weatherlink.com 1.10,2013-01-21 06:20:00,
2013-01-21 01:35:00,27.8,19.0,30.02,SW,236,0.0,2.0,69,0.00,,,0.00,weatherlink.com 1.10,2013-01-21 06:35:00,
2013-01-21 01:50:00,27.1,18.0,30.03,WSW,240,0.0,3.0,69,0.00,,,0.00,weatherlink.com 1.10,2013-01-21 06:50:00,
2013-01-21 02:05:00,26.6,17.0,30.03,WSW,239,0.0,3.0,68,0.00,,,0.00,weatherlink.com 1.10,2013-01-21 07:05:00,
2013-01-21 02:20:00,26.8,17.0,30.03,SE,143,2.0,3.0,66,0.00,,,0.00,weatherlink.com 1.10,2013-01-21 07:20:00,
2013-01-21 02:37:00,27.5,16.0,30.03,WNW,294,2.0,4.0,62,0.00,,,0.00,weatherlink.com 1.10,2013-01-21 07:37:00,
2013-01-21 02:50:00,27.1,17.0,30.03,WNW,284,2.0,3.0,67,0.00,,,0.00,weatherlink.com 1.10,2013-01-21 07:50:00,
2013-01-21 03:05:00,26.2,18.0,30.02,West,281,1.0,3.0,72,0.00,,,0.00,weatherlink.com 1.10,2013-01-21 08:05:00,
2013-01-21 03:20:00,25.5,17.0,30.02,WSW,255,1.0,2.0,71,0.00,,,0.00,weatherlink.com 1.10,2013-01-21 08:20:00,
2013-01-21 03:36:00,25.6,17.0,30.02,WNW,290,0.0,2.0,70,0.00,,,0.00,weatherlink.com 1.10,2013-01-21 08:36:00,
2013-01-21 03:51:00,25.6,19.0,30.01,WNW,290,0.0,2.0,77,0.00,,,0.00,weatherlink.com 1.10,2013-01-21 08:51:00,
2013-01-21 04:06:00,25.6,20.0,30.00,WSW,239,0.0,2.0,78,0.00,,,0.00,weatherlink.com 1.10,2013-01-21 09:06:00,
2013-01-21 04:21:00,24.8,18.0,30.00,WSW,256,0.0,1.0,76,0.00,,,0.00,weatherlink.com 1.10,2013-01-21 09:21:00,
2013-01-21 04:36:00,24.7,19.0,30.00,South,176,0.0,3.0,79,0.00,,,0.00,weatherlink.com 1.10,2013-01-21 09:36:00,
2013-01-21 04:51:00,26.0,20.0,30.00,WNW,295,3.0,4.0,77,0.00,,,0.00,weatherlink.com 1.10,2013-01-21 09:51:00,
2013-01-21 05:06:00,25.6,20.0,30.00,SSE,160,2.0,2.0,78,0.00,,,0.00,weatherlink.com 1.10,2013-01-21 10:06:00,
2013-01-21 05:21:00,25.7,19.0,30.00,West,278,0.0,2.0,76,0.00,,,0.00,weatherlink.com 1.10,2013-01-21 10:21:00,
2013-01-21 05:36:00,26.0,21.0,30.00,WNW,290,0.0,2.0,80,0.00,,,0.00,weatherlink.com 1.10,2013-01-21 10:36:00,
2013-01-21 05:51:00,26.5,20.0,30.00,WNW,297,1.0,5.0,77,0.00,,,0.00,weatherlink.com 1.10,2013-01-21 10:51:00,
2013-01-21 06:06:00,26.5,21.0,30.01,WSW,253,0.0,1.0,78,0.00,,,0.00,weatherlink.com 1.10,2013-01-21 11:06:00,
2013-01-21 06:21:00,26.5,21.0,30.00,NNW,339,0.0,1.0,79,0.00,,,0.00,weatherlink.com 1.10,2013-01-21 11:21:00,
2013-01-21 06:36:00,26.4,20.0,30.00,NNW,339,0.0,1.0,78,0.00,,,0.00,weatherlink.com 1.10,2013-01-21 11:36:00,
2013-01-21 06:51:00,26.8,21.0,30.00,South,184,0.0,1.0,78,0.00,,,0.00,weatherlink.com 1.10,2013-01-21 11:51:00,
2013-01-21 07:06:00,26.9,21.0,30.00,SSE,148,0.0,0.0,79,0.00,,,0.00,weatherlink.com 1.10,2013-01-21 12:06:00,
2013-01-21 07:21:00,27.1,22.0,29.99,SE,131,1.0,2.0,81,0.00,,,0.00,weatherlink.com 1.10,2013-01-21 12:21:00,
2013-01-21 07:36:00,27.4,22.0,29.99,NE,46,2.0,2.0,80,0.00,,,0.00,weatherlink.com 1.10,2013-01-21 12:36:00,
2013-01-21 07:51:00,29.2,22.0,29.99,NE,43,1.0,1.0,73,0.00,,,0.00,weatherlink.com 1.10,2013-01-21 12:51:00,
2013-01-21 08:06:00,30.6,22.0,29.99,East,79,1.0,2.0,70,0.00,,,0.00,weatherlink.com 1.10,2013-01-21 13:06:00,
2013-01-21 08:21:00,32.3,22.0,29.98,SE,125,0.0,3.0,65,0.00,,,0.00,weatherlink.com 1.10,2013-01-21 13:21:00,
2013-01-21 08:36:00,34.8,19.0,29.98,SSW,211,5.0,7.0,53,0.00,,,0.00,weatherlink.com 1.10,2013-01-21 13:36:00,
2013-01-21 08:51:00,35.9,18.0,29.98,SW,214,2.0,8.0,48,0.00,,,0.00,weatherlink.com 1.10,2013-01-21 13:51:00,
2013-01-21 09:06:00,36.2,16.0,29.99,SW,229,3.0,9.0,44,0.00,,,0.00,weatherlink.com 1.10,2013-01-21 14:06:00,
2013-01-21 09:21:00,36.5,17.0,29.99,WSW,250,1.0,7.0,45,0.00,,,0.00,weatherlink.com 1.10,2013-01-21 14:21:00,
2013-01-21 09:36:00,36.7,17.0,29.99,SSW,207,2.0,4.0,44,0.00,,,0.00,weatherlink.com 1.10,2013-01-21 14:36:00,
2013-01-21 09:51:00,37.1,17.0,29.98,SSW,198,1.0,4.0,44,0.00,,,0.00,weatherlink.com 1.10,2013-01-21 14:51:00,
2013-01-21 10:06:00,37.6,16.0,29.98,SW,228,4.0,8.0,41,0.00,,,0.00,weatherlink.com 1.10,2013-01-21 15:06:00,
2013-01-21 10:37:00,38.7,16.0,29.97,South,183,3.0,6.0,39,0.00,,,0.00,weatherlink.com 1.10,2013-01-21 15:37:00,
2013-01-21 10:52:00,39.3,15.0,29.96,SW,215,2.0,7.0,37,0.00,,,0.00,weatherlink.com 1.10,2013-01-21 15:52:00,
2013-01-21 11:07:00,39.9,15.0,29.94,SW,219,0.0,9.0,37,0.00,,,0.00,weatherlink.com 1.10,2013-01-21 16:07:00,
2013-01-21 11:22:00,40.3,14.0,29.93,South,187,9.0,14.0,34,0.00,,,0.00,weatherlink.com 1.10,2013-01-21 16:22:00,
2013-01-21 11:37:00,40.9,14.0,29.92,SW,224,8.0,11.0,33,0.00,,,0.00,weatherlink.com 1.10,2013-01-21 16:37:00,
2013-01-21 11:52:00,41.6,14.0,29.90,SSE,163,10.0,16.0,32,0.00,,,0.00,weatherlink.com 1.10,2013-01-21 16:52:00,
2013-01-21 12:07:00,43.4,14.0,29.89,South,191,14.0,21.0,30,0.00,,,0.00,weatherlink.com 1.10,2013-01-21 17:07:00,
2013-01-21 12:22:00,43.1,14.0,29.87,South,188,15.0,21.0,31,0.00,,,0.00,weatherlink.com 1.10,2013-01-21 17:22:00,
2013-01-21 12:37:00,44.3,15.0,29.86,WNW,300,7.0,15.0,31,0.00,,,0.00,weatherlink.com 1.10,2013-01-21 17:37:00,
2013-01-21 12:52:00,45.3,15.0,29.85,WSW,256,7.0,16.0,29,0.00,,,0.00,weatherlink.com 1.10,2013-01-21 17:52:00,
2013-01-21 13:07:00,46.2,16.0,29.83,WSW,243,11.0,21.0,30,0.00,,,0.00,weatherlink.com 1.10,2013-01-21 18:07:00,
2013-01-21 13:22:00,47.4,14.0,29.82,North,349,12.0,23.0,26,0.00,,,0.00,weatherlink.com 1.10,2013-01-21 18:22:00,
2013-01-21 13:37:00,47.5,15.0,29.81,West,280,19.0,24.0,27,0.00,,,0.00,weatherlink.com 1.10,2013-01-21 18:37:00,
2013-01-21 13:53:00,47.5,16.0,29.80,West,271,12.0,19.0,28,0.00,,,0.00,weatherlink.com 1.10,2013-01-21 18:53:00,
2013-01-21 14:07:00,47.5,16.0,29.79,South,187,17.0,28.0,28,0.00,,,0.00,weatherlink.com 1.10,2013-01-21 19:07:00,
2013-01-21 14:22:00,46.9,18.0,29.79,West,277,12.0,30.0,31,0.00,,,0.00,weatherlink.com 1.10,2013-01-21 19:22:00,
2013-01-21 14:38:00,47.1,18.0,29.77,West,262,10.0,27.0,31,0.00,,,0.00,weatherlink.com 1.10,2013-01-21 19:38:00,
2013-01-21 15:08:00,47.1,18.0,29.77,WNW,293,8.0,26.0,31,0.00,,,0.00,weatherlink.com 1.10,2013-01-21 20:08:00,
2013-01-21 15:23:00,46.9,18.0,29.77,WSW,241,17.0,21.0,31,0.00,,,0.00,weatherlink.com 1.10,2013-01-21 20:23:00,
2013-01-21 15:38:00,46.7,17.0,29.77,WNW,300,9.0,19.0,31,0.00,,,0.00,weatherlink.com 1.10,2013-01-21 20:38:00,
2013-01-21 15:53:00,46.6,17.0,29.77,NNW,346,8.0,24.0,30,0.00,,,0.00,weatherlink.com 1.10,2013-01-21 20:53:00,
2013-01-21 16:08:00,46.3,15.0,29.76,WSW,252,13.0,26.0,29,0.00,,,0.00,weatherlink.com 1.10,2013-01-21 21:08:00,
2013-01-21 16:23:00,45.8,15.0,29.77,SE,131,6.0,21.0,29,0.00,,,0.00,weatherlink.com 1.10,2013-01-21 21:23:00,
2013-01-21 16:38:00,45.3,14.0,29.77,North,359,13.0,22.0,28,0.00,,,0.00,weatherlink.com 1.10,2013-01-21 21:38:00,
2013-01-21 16:53:00,44.6,15.0,29.78,SSE,156,11.0,19.0,30,0.00,,,0.00,weatherlink.com 1.10,2013-01-21 21:53:00,
2013-01-21 17:08:00,43.9,14.0,29.79,SW,224,8.0,17.0,30,0.00,,,0.00,weatherlink.com 1.10,2013-01-21 22:08:00,
2013-01-21 17:23:00,41.9,15.0,29.79,SW,219,4.0,12.0,33,0.00,,,0.00,weatherlink.com 1.10,2013-01-21 22:23:00,
2013-01-21 17:38:00,40.6,12.0,29.80,West,281,4.0,12.0,31,0.00,,,0.00,weatherlink.com 1.10,2013-01-21 22:38:00,
2013-01-21 18:08:00,39.9,7.0,29.81,NNE,29,8.0,18.0,26,0.00,,,0.00,weatherlink.com 1.10,2013-01-21 23:08:00,
2013-01-21 18:23:00,39.3,8.0,29.82,WNW,291,9.0,17.0,27,0.00,,,0.00,weatherlink.com 1.10,2013-01-21 23:23:00,
2013-01-21 18:38:00,38.8,7.0,29.83,North,5,5.0,22.0,27,0.00,,,0.00,weatherlink.com 1.10,2013-01-21 23:38:00,
2013-01-21 18:53:00,38.1,8.0,29.84,WSW,256,13.0,15.0,28,0.00,,,0.00,weatherlink.com 1.10,2013-01-21 23:53:00,
2013-01-21 19:08:00,37.6,8.0,29.83,West,278,4.0,24.0,29,0.00,,,0.00,weatherlink.com 1.10,2013-01-22 00:08:00,
2013-01-21 19:23:00,36.8,6.0,29.84,WSW,245,12.0,26.0,28,0.00,,,0.00,weatherlink.com 1.10,2013-01-22 00:23:00,
2013-01-21 19:38:00,35.9,8.0,29.84,West,276,7.0,14.0,31,0.00,,,0.00,weatherlink.com 1.10,2013-01-22 00:38:00,
2013-01-21 19:53:00,35.1,8.0,29.84,SSW,204,5.0,14.0,32,0.00,,,0.00,weatherlink.com 1.10,2013-01-22 00:53:00,
2013-01-21 20:08:00,34.3,8.0,29.85,SW,232,10.0,13.0,34,0.00,,,0.00,weatherlink.com 1.10,2013-01-22 01:08:00,
2013-01-21 20:23:00,32.8,11.0,29.85,WSW,249,2.0,6.0,40,0.00,,,0.00,weatherlink.com 1.10,2013-01-22 01:23:00,
2013-01-21 20:38:00,32.7,10.0,29.85,WNW,297,11.0,13.0,38,0.00,,,0.00,weatherlink.com 1.10,2013-01-22 01:38:00,
2013-01-21 20:53:00,32.3,9.0,29.86,NW,314,8.0,12.0,38,0.00,,,0.00,weatherlink.com 1.10,2013-01-22 01:53:00,
2013-01-21 21:08:00,31.8,9.0,29.87,SW,236,5.0,13.0,39,0.00,,,0.00,weatherlink.com 1.10,2013-01-22 02:08:00,
2013-01-21 21:23:00,31.5,8.0,29.87,NW,307,12.0,16.0,38,0.00,,,0.00,weatherlink.com 1.10,2013-01-22 02:23:00,
2013-01-21 21:38:00,31.0,7.0,29.88,NW,304,7.0,15.0,37,0.00,,,0.00,weatherlink.com 1.10,2013-01-22 02:38:00,
2013-01-21 21:53:00,30.6,8.0,29.88,WSW,239,9.0,18.0,39,0.00,,,0.00,weatherlink.com 1.10,2013-01-22 02:53:00,
2013-01-21 22:08:00,30.1,8.0,29.88,West,273,8.0,15.0,40,0.00,,,0.00,weatherlink.com 1.10,2013-01-22 03:08:00,
2013-01-21 22:23:00,29.7,9.0,29.88,WNW,298,11.0,16.0,41,0.00,,,0.00,weatherlink.com 1.10,2013-01-22 03:23:00,
2013-01-21 22:38:00,29.7,7.0,29.89,NW,304,18.0,25.0,39,0.00,,,0.00,weatherlink.com 1.10,2013-01-22 03:38:00,
2013-01-21 22:53:00,29.5,7.0,29.89,NW,322,11.0,29.0,38,0.00,,,0.00,weatherlink.com 1.10,2013-01-22 03:53:00,
2013-01-21 23:08:00,29.0,7.0,29.89,NW,314,3.0,19.0,40,0.00,,,0.00,weatherlink.com 1.10,2013-01-22 04:08:00,
2013-01-21 23:23:00,28.4,7.0,29.90,NNW,339,8.0,27.0,41,0.00,,,0.00,weatherlink.com 1.10,2013-01-22 04:23:00,
2013-01-21 23:38:00,28.0,6.0,29.90,West,266,11.0,26.0,39,0.00,,,0.00,weatherlink.com 1.10,2013-01-22 04:38:00,
2013-01-21 23:53:00,27.4,6.0,29.90,NW,312,8.0,24.0,41,0.00,,,0.00,weatherlink.com 1.10,2013-01-22 04:53:00,